SCOUT A R/B, 3137

Orbit data source: Space-Track

SCOUT A R/B, 3137 is space debris in LEO originally from a launch on Sat, 02 Mar 1968 UTC launched from the Air Force Western Test Range (AFWTR). Debris objects in space refer to the collection of defunct objects orbiting the Earth. Examples of debris include non-operational satellites, rocket bodies, and fragments generated from explosions, collisions, or faulty payload assembly.

Loading next visibility...
Identifier
3137, 1968-012B
Orbit
LEO
Country
Flag of USUS
Related business
Manufacturer
ABL
Mission
Spacecraft
Bus & Motor
ALTAIR, Unknown motor
Mass
33 kg wet, 33 kg dry
Launch date (UTC)
1968-03-02 (58 years ago)
Launch vehicle
Unknown
Launch site
Air Force Western Test Range (AFWTR)
Object type
Payload
Rocket body
Debris
Shape & HBR
Unknown
Radar Cross Section
Medium (>0.1 m² and <1 m²)

Expand to show TLE details & history
Last TLE update: 23 hours ago

TLE from 23 hours ago
0 SCOUT A R/B
1 03137U 68012B   25348.79537819  .00000066  00000-0  87926-4 0  9990
2 03137  90.0295 273.0030 0073254 243.7815 115.5792 13.50303300843909
Epoch: 2025-12-14T19:05Z
TLE epoch observation values (Epoch: 2025-12-14T19:05:20.675Z)
Latitude
-0.00009°
Longitude
-97.03631°
Altitude
1,097.986 km
Speed
7.292 km/s
True Right ascension
18h 12m 00s
True Declination
0° 00' 00"
Sunlit
Object was in daylight at epoch
Visualization orbit readout
Latitude
Unknown
Longitude
Unknown
Altitude
Unknown
Speed
Unknown
Apparent Right ascension
Unknown
Apparent Declination
Unknown
Sunlit
N/A
Visualization observer readout
Local Sidereal Time
17:08:45
Azimuth
Unknown
Elevation
Unknown
Doppler factor
Unknown
Orbital elements
Apogee altitude
1,122.739 km
Perigee altitude
1,013.645 km
Semi-major axis
7,446.329 km
Eccentricity
0.00733
Inclination
90.0295°
RAAN
273.003°
Arg. of periapsis
243.7815°
True anomaly
116.33335°
Mean anomaly
115.5792°
Eccentric anomaly
115.95658°
Mean motion
3.37777 °/min
Orbital period
106.58 mins
BSTAR
0.000087926
Loading maneuver chart data...
Computing Atmospheric mass density...
Loading historical data...
Loading historical data...
Loading historical data...
Loading historical data...
Loading historical data...
Loading historical data...
Loading historical data...

Documentation

Showing up to 5 results
|